owner,sensor,date,latitude,longitude,vertical_datum,direction_of_sea_water_velocity,sea_water_speed,upward_sea_water_velocity,qcFlag 
ADCP,ioos:station:wmo:42890:1,2013-04-01T00:07:00Z,27.6250,-90.4410,15.2,71.0,32.1,-9999.0,'11111222,11111222,99999999' 
ADCP,ioos:station:wmo:42890:1,2013-04-01T00:27:00Z,27.6250,-90.4410,15.2,72.0,29.9,-9999.0,'11111222,11111222,99999999' 
ADCP,ioos:station:wmo:42890:1,2013-04-01T00:47:00Z,27.6250,-90.4410,15.2,70.0,31.6,-9999.0,'11111222,11111222,99999999' 
ADCP,ioos:station:wmo:42890:1,2013-04-01T01:07:00Z,27.6250,-90.4410,15.2,74.0,20.5,-9999.0,'11111222,11111222,99999999' 
ADCP,ioos:station:wmo:42890:1,2013-04-01T01:27:00Z,27.6250,-90.4410,15.2,72.0,22.6,-9999.0,'11111222,11111222,99999999' 
ADCP,ioos:station:wmo:42890:1,2013-04-01T01:47:00Z,27.6250,-90.4410,15.2,76.0,20.3,-9999.0,'11111222,11111222,99999999' 
ADCP,ioos:station:wmo:42890:1,2013-04-01T02:07:00Z,27.6250,-90.4410,15.2,74.0,19.3,-9999.0,'11111222,11111222,99999999' 
ADCP,ioos:station:wmo:42890:1,2013-04-01T02:27:00Z,27.6250,-90.4410,15.2,73.0,20.9,-9999.0,'11111222,11111222,99999999' 
ADCP,ioos:station:wmo:42890:1,2013-04-01T02:47:00Z,27.6250,-90.4410,15.2,75.0,17.0,-9999.0,'11111222,11111222,99999999' 
ADCP,ioos:station:wmo:42890:1,2013-04-01T03:07:00Z,27.6250,-90.4410,15.2,81.0,23.8,-9999.0,'11111222,11111222,99999999' 
ADCP,ioos:station:wmo:42890:1,2013-04-01T03:27:00Z,27.6250,-90.4410,15.2,82.0,19.5,-9999.0,'11111222,11111222,99999999' 
ADCP,ioos:station:wmo:42890:1,2013-04-01T03:47:00Z,27.6250,-90.4410,15.2,86.0,16.1,-9999.0,'11111222,11111222,99999999' 
ADCP,ioos:station:wmo:42890:1,2013-04-01T04:07:00Z,27.6250,-90.4410,15.2,88.0,15.7,-9999.0,'11111222,11111222,99999999' 
ADCP,ioos:station:wmo:42890:1,2013-04-01T04:27:00Z,27.6250,-90.4410,15.2,83.0,26.4,-9999.0,'11111222,11111222,99999999' 
ADCP,ioos:station:wmo:42890:1,2013-04-01T04:47:00Z,27.6250,-90.4410,15.2,82.0,21.8,-9999.0,'11111222,11111222,99999999' 
ADCP,ioos:station:wmo:42890:1,2013-04-01T05:07:00Z,27.6250,-90.4410,15.2,238.0,53.5,-9999.0,'11111222,11111222,99999999' 
ADCP,ioos:station:wmo:42890:1,2013-04-01T05:27:00Z,27.6250,-90.4410,15.2,181.0,31.7,-9999.0,'11111222,11111222,99999999' 
ADCP,ioos:station:wmo:42890:1,2013-04-01T05:47:00Z,27.6250,-90.4410,15.2,71.0,29.2,-9999.0,'11111222,11111222,99999999' 
ADCP,ioos:station:wmo:42890:1,2013-04-01T06:07:00Z,27.6250,-90.4410,15.2,195.0,22.8,-9999.0,'11111222,11111222,99999999' 
ADCP,ioos:station:wmo:42890:1,2013-04-01T06:27:00Z,27.6250,-90.4410,15.2,131.0,12.9,-9999.0,'11111222,11111222,99999999' 
ADCP,ioos:station:wmo:42890:1,2013-04-01T06:47:00Z,27.6250,-90.4410,15.2,81.0,28.9,-9999.0,'11111222,11111222,99999999' 
ADCP,ioos:station:wmo:42890:1,2013-04-01T07:07:00Z,27.6250,-90.4410,15.2,81.0,28.4,-9999.0,'11111222,11111222,99999999' 
ADCP,ioos:station:wmo:42890:1,2013-04-01T07:27:00Z,27.6250,-90.4410,15.2,80.0,28.1,-9999.0,'11111222,11111222,99999999' 
ADCP,ioos:station:wmo:42890:1,2013-04-01T07:47:00Z,27.6250,-90.4410,15.2,78.0,28.5,-9999.0,'11111222,11111222,99999999' 
ADCP,ioos:station:wmo:42890:1,2013-04-01T08:07:00Z,27.6250,-90.4410,15.2,76.0,27.4,-9999.0,'11111222,11111222,99999999' 
ADCP,ioos:station:wmo:42890:1,2013-04-01T08:27:00Z,27.6250,-90.4410,15.2,74.0,27.1,-9999.0,'11111222,11111222,99999999' 
ADCP,ioos:station:wmo:42890:1,2013-04-01T08:47:00Z,27.6250,-90.4410,15.2,72.0,26.6,-9999.0,'11111222,11111222,99999999' 
ADCP,ioos:station:wmo:42890:1,2013-04-01T09:07:00Z,27.6250,-90.4410,15.2,70.0,24.6,-9999.0,'11111222,11111222,99999999' 
ADCP,ioos:station:wmo:42890:1,2013-04-01T09:27:00Z,27.6250,-90.4410,15.2,68.0,44.6,-9999.0,'11111222,11111222,99999999' 
ADCP,ioos:station:wmo:42890:1,2013-04-01T09:47:00Z,27.6250,-90.4410,15.2,73.0,32.4,-9999.0,'11111222,11111222,99999999' 
ADCP,ioos:station:wmo:42890:1,2013-04-01T10:07:00Z,27.6250,-90.4410,15.2,71.0,43.3,-9999.0,'11111222,11111222,99999999' 
ADCP,ioos:station:wmo:42890:1,2013-04-01T10:27:00Z,27.6250,-90.4410,15.2,79.0,23.9,-9999.0,'11111222,11111222,99999999' 
ADCP,ioos:station:wmo:42890:1,2013-04-01T10:47:00Z,27.6250,-90.4410,15.2,153.0,25.5,-9999.0,'11111222,11111222,99999999' 
ADCP,ioos:station:wmo:42890:1,2013-04-01T11:07:00Z,27.6250,-90.4410,15.2,186.0,22.5,-9999.0,'11111222,11111222,99999999' 
ADCP,ioos:station:wmo:42890:1,2013-04-01T11:27:00Z,27.6250,-90.4410,15.2,98.0,12.1,-9999.0,'11111222,11111222,99999999' 
ADCP,ioos:station:wmo:42890:1,2013-04-01T11:47:00Z,27.6250,-90.4410,15.2,85.0,24.1,-9999.0,'11111222,11111222,99999999' 
ADCP,ioos:station:wmo:42890:1,2013-04-01T12:07:00Z,27.6250,-90.4410,15.2,73.0,28.7,-9999.0,'11111222,11111222,99999999' 
ADCP,ioos:station:wmo:42890:1,2013-04-01T12:27:00Z,27.6250,-90.4410,15.2,120.0,9.5,-9999.0,'11133222,11111222,99999999' 
ADCP,ioos:station:wmo:42890:1,2013-04-01T12:47:00Z,27.6250,-90.4410,15.2,10.0,20.8,-9999.0,'11111222,11111222,99999999' 
ADCP,ioos:station:wmo:42890:1,2013-04-01T13:07:00Z,27.6250,-90.4410,15.2,70.0,29.2,-9999.0,'11111222,11111222,99999999' 
ADCP,ioos:station:wmo:42890:1,2013-04-01T13:27:00Z,27.6250,-90.4410,15.2,67.0,27.0,-9999.0,'11111222,11111222,99999999' 
ADCP,ioos:station:wmo:42890:1,2013-04-01T13:47:00Z,27.6250,-90.4410,15.2,52.0,22.6,-9999.0,'11111222,11111222,99999999' 
ADCP,ioos:station:wmo:42890:1,2013-04-01T14:07:00Z,27.6250,-90.4410,15.2,83.0,29.0,-9999.0,'11111222,11111222,99999999' 
ADCP,ioos:station:wmo:42890:1,2013-04-01T14:27:00Z,27.6250,-90.4410,15.2,80.0,22.4,-9999.0,'11111222,11111222,99999999' 
ADCP,ioos:station:wmo:42890:1,2013-04-01T14:47:00Z,27.6250,-90.4410,15.2,87.0,18.3,-9999.0,'11111222,11111222,99999999' 
ADCP,ioos:station:wmo:42890:1,2013-04-01T15:07:00Z,27.6250,-90.4410,15.2,94.0,11.4,-9999.0,'11111222,11111222,99999999' 
ADCP,ioos:station:wmo:42890:1,2013-04-01T15:27:00Z,27.6250,-90.4410,15.2,121.0,6.6,-9999.0,'11133222,11111222,99999999' 
ADCP,ioos:station:wmo:42890:1,2013-04-01T15:47:00Z,27.6250,-90.4410,15.2,195.0,6.5,-9999.0,'11133222,11111222,99999999' 
ADCP,ioos:station:wmo:42890:1,2013-04-01T16:07:00Z,27.6250,-90.4410,15.2,95.0,7.3,-9999.0,'11133222,11111222,99999999' 
ADCP,ioos:station:wmo:42890:1,2013-04-01T16:27:00Z,27.6250,-90.4410,15.2,91.0,13.6,-9999.0,'11111222,11111222,99999999' 
ADCP,ioos:station:wmo:42890:1,2013-04-01T16:47:00Z,27.6250,-90.4410,15.2,85.0,13.0,-9999.0,'11111222,11111222,99999999' 
ADCP,ioos:station:wmo:42890:1,2013-04-01T17:07:00Z,27.6250,-90.4410,15.2,87.0,22.7,-9999.0,'11111222,11111222,99999999' 
ADCP,ioos:station:wmo:42890:1,2013-04-01T17:27:00Z,27.6250,-90.4410,15.2,147.0,11.5,-9999.0,'11111222,11111222,99999999' 
ADCP,ioos:station:wmo:42890:1,2013-04-01T17:47:00Z,27.6250,-90.4410,15.2,99.0,12.5,-9999.0,'11111222,11111222,99999999' 
ADCP,ioos:station:wmo:42890:1,2013-04-01T18:07:00Z,27.6250,-90.4410,15.2,105.0,21.9,-9999.0,'11111222,11111222,99999999' 
ADCP,ioos:station:wmo:42890:1,2013-04-01T18:27:00Z,27.6250,-90.4410,15.2,180.0,34.3,-9999.0,'11111222,11111222,99999999' 
ADCP,ioos:station:wmo:42890:1,2013-04-01T18:47:00Z,27.6250,-90.4410,15.2,118.0,9.9,-9999.0,'11133222,11111222,99999999' 
ADCP,ioos:station:wmo:42890:1,2013-04-01T19:07:00Z,27.6250,-90.4410,15.2,101.0,13.2,-9999.0,'11111222,11111222,99999999' 
ADCP,ioos:station:wmo:42890:1,2013-04-01T19:27:00Z,27.6250,-90.4410,15.2,70.0,39.6,-9999.0,'11111222,11111222,99999999' 
ADCP,ioos:station:wmo:42890:1,2013-04-01T19:47:00Z,27.6250,-90.4410,15.2,73.0,21.5,-9999.0,'11111222,11111222,99999999' 
ADCP,ioos:station:wmo:42890:1,2013-04-01T20:07:00Z,27.6250,-90.4410,15.2,74.0,22.5,-9999.0,'11111222,11111222,99999999' 
ADCP,ioos:station:wmo:42890:1,2013-04-01T20:27:00Z,27.6250,-90.4410,15.2,82.0,13.8,-9999.0,'11111222,11111222,99999999' 
ADCP,ioos:station:wmo:42890:1,2013-04-01T20:47:00Z,27.6250,-90.4410,15.2,80.0,21.6,-9999.0,'11111222,11111222,99999999' 
ADCP,ioos:station:wmo:42890:1,2013-04-01T21:07:00Z,27.6250,-90.4410,15.2,71.0,29.5,-9999.0,'11111222,11111222,99999999' 
ADCP,ioos:station:wmo:42890:1,2013-04-01T21:27:00Z,27.6250,-90.4410,15.2,76.0,20.4,-9999.0,'11111222,11111222,99999999' 
ADCP,ioos:station:wmo:42890:1,2013-04-01T21:47:00Z,27.6250,-90.4410,15.2,71.0,30.7,-9999.0,'11111222,11111222,99999999' 
ADCP,ioos:station:wmo:42890:1,2013-04-01T22:07:00Z,27.6250,-90.4410,15.2,68.0,33.3,-9999.0,'11111222,11111222,99999999' 
ADCP,ioos:station:wmo:42890:1,2013-04-01T22:27:00Z,27.6250,-90.4410,15.2,72.0,25.2,-9999.0,'11111222,11111222,99999999' 
ADCP,ioos:station:wmo:42890:1,2013-04-01T22:47:00Z,27.6250,-90.4410,15.2,70.0,24.0,-9999.0,'11111222,11111222,99999999' 
ADCP,ioos:station:wmo:42890:1,2013-04-01T23:07:00Z,27.6250,-90.4410,15.2,75.0,16.2,-9999.0,'11111222,11111222,99999999' 
ADCP,ioos:station:wmo:42890:1,2013-04-01T23:27:00Z,27.6250,-90.4410,15.2,86.0,19.0,-9999.0,'11111222,11111222,99999999' 
ADCP,ioos:station:wmo:42890:1,2013-04-01T23:47:00Z,27.6250,-90.4410,15.2,81.0,23.0,-9999.0,'11111222,11111222,99999999' 
ADCP,ioos:station:wmo:42890:1,2013-04-02T00:07:00Z,27.6250,-90.4410,15.2,74.0,24.2,-9999.0,'11111222,11111222,99999999' 
ADCP,ioos:station:wmo:42890:1,2013-04-02T00:27:00Z,27.6250,-90.4410,15.2,78.0,16.6,-9999.0,'11111222,11111222,99999999' 
ADCP,ioos:station:wmo:42890:1,2013-04-02T00:47:00Z,27.6250,-90.4410,15.2,76.0,19.9,-9999.0,'11111222,11111222,99999999' 
ADCP,ioos:station:wmo:42890:1,2013-04-02T01:07:00Z,27.6250,-90.4410,15.2,76.0,22.2,-9999.0,'11111222,11111222,99999999' 
ADCP,ioos:station:wmo:42890:1,2013-04-02T01:27:00Z,27.6250,-90.4410,15.2,74.0,21.9,-9999.0,'11111222,11111222,99999999' 
ADCP,ioos:station:wmo:42890:1,2013-04-02T01:47:00Z,27.6250,-90.4410,15.2,75.0,22.3,-9999.0,'11111222,11111222,99999999' 
ADCP,ioos:station:wmo:42890:1,2013-04-02T02:07:00Z,27.6250,-90.4410,15.2,75.0,22.9,-9999.0,'11111222,11111222,99999999' 
ADCP,ioos:station:wmo:42890:1,2013-04-02T02:27:00Z,27.6250,-90.4410,15.2,75.0,20.7,-9999.0,'11111222,11111222,99999999' 
ADCP,ioos:station:wmo:42890:1,2013-04-02T02:47:00Z,27.6250,-90.4410,15.2,73.0,21.6,-9999.0,'11111222,11111222,99999999' 
ADCP,ioos:station:wmo:42890:1,2013-04-02T03:07:00Z,27.6250,-90.4410,15.2,76.0,29.2,-9999.0,'11111222,11111222,99999999' 
ADCP,ioos:station:wmo:42890:1,2013-04-02T03:27:00Z,27.6250,-90.4410,15.2,81.0,24.7,-9999.0,'11111222,11111222,99999999' 
ADCP,ioos:station:wmo:42890:1,2013-04-02T03:47:00Z,27.6250,-90.4410,15.2,71.0,25.3,-9999.0,'11111222,11111222,99999999' 
ADCP,ioos:station:wmo:42890:1,2013-04-02T04:07:00Z,27.6250,-90.4410,15.2,69.0,23.2,-9999.0,'11111222,11111222,99999999' 
ADCP,ioos:station:wmo:42890:1,2013-04-02T04:27:00Z,27.6250,-90.4410,15.2,66.0,25.6,-9999.0,'11111222,11111222,99999999' 
ADCP,ioos:station:wmo:42890:1,2013-04-02T04:47:00Z,27.6250,-90.4410,15.2,66.0,24.0,-9999.0,'11111222,11111222,99999999' 
ADCP,ioos:station:wmo:42890:1,2013-04-02T05:07:00Z,27.6250,-90.4410,15.2,63.0,21.2,-9999.0,'11111222,11111222,99999999' 
ADCP,ioos:station:wmo:42890:1,2013-04-02T05:27:00Z,27.6250,-90.4410,15.2,61.0,21.4,-9999.0,'11111222,11111222,99999999' 
ADCP,ioos:station:wmo:42890:1,2013-04-02T05:47:00Z,27.6250,-90.4410,15.2,57.0,21.3,-9999.0,'11111222,11111222,99999999' 
ADCP,ioos:station:wmo:42890:1,2013-04-02T06:07:00Z,27.6250,-90.4410,15.2,53.0,21.6,-9999.0,'11111222,11111222,99999999' 
ADCP,ioos:station:wmo:42890:1,2013-04-02T06:27:00Z,27.6250,-90.4410,15.2,47.0,22.1,-9999.0,'11111222,11111222,99999999' 
ADCP,ioos:station:wmo:42890:1,2013-04-02T06:47:00Z,27.6250,-90.4410,15.2,43.0,20.0,-9999.0,'11111222,11111222,99999999' 
ADCP,ioos:station:wmo:42890:1,2013-04-02T07:07:00Z,27.6250,-90.4410,15.2,39.0,20.1,-9999.0,'11111222,11111222,99999999' 
ADCP,ioos:station:wmo:42890:1,2013-04-02T07:27:00Z,27.6250,-90.4410,15.2,40.0,23.9,-9999.0,'11111222,11111222,99999999' 
ADCP,ioos:station:wmo:42890:1,2013-04-02T07:47:00Z,27.6250,-90.4410,15.2,36.0,20.9,-9999.0,'11111222,11111222,99999999' 
ADCP,ioos:station:wmo:42890:1,2013-04-02T08:07:00Z,27.6250,-90.4410,15.2,37.0,22.8,-9999.0,'11111222,11111222,99999999' 
ADCP,ioos:station:wmo:42890:1,2013-04-02T08:27:00Z,27.6250,-90.4410,15.2,38.0,24.3,-9999.0,'11111222,11111222,99999999' 
ADCP,ioos:station:wmo:42890:1,2013-04-02T08:47:00Z,27.6250,-90.4410,15.2,38.0,23.5,-9999.0,'11111222,11111222,99999999' 
ADCP,ioos:station:wmo:42890:1,2013-04-02T09:07:00Z,27.6250,-90.4410,15.2,39.0,23.0,-9999.0,'11111222,11111222,99999999' 
ADCP,ioos:station:wmo:42890:1,2013-04-02T09:27:00Z,27.6250,-90.4410,15.2,46.0,23.6,-9999.0,'11111222,11111222,99999999' 
ADCP,ioos:station:wmo:42890:1,2013-04-02T09:47:00Z,27.6250,-90.4410,15.2,45.0,23.3,-9999.0,'11111222,11111222,99999999' 
ADCP,ioos:station:wmo:42890:1,2013-04-02T10:07:00Z,27.6250,-90.4410,15.2,47.0,19.4,-9999.0,'11111222,11111222,99999999' 
ADCP,ioos:station:wmo:42890:1,2013-04-02T10:27:00Z,27.6250,-90.4410,15.2,47.0,20.7,-9999.0,'11111222,11111222,99999999' 
ADCP,ioos:station:wmo:42890:1,2013-04-02T10:47:00Z,27.6250,-90.4410,15.2,42.0,20.0,-9999.0,'11111222,11111222,99999999' 
ADCP,ioos:station:wmo:42890:1,2013-04-02T11:07:00Z,27.6250,-90.4410,15.2,39.0,16.4,-9999.0,'11111222,11111222,99999999' 
ADCP,ioos:station:wmo:42890:1,2013-04-02T11:27:00Z,27.6250,-90.4410,15.2,50.0,16.1,-9999.0,'11111222,11111222,99999999' 
ADCP,ioos:station:wmo:42890:1,2013-04-02T11:47:00Z,27.6250,-90.4410,15.2,57.0,18.4,-9999.0,'11111222,11111222,99999999' 
ADCP,ioos:station:wmo:42890:1,2013-04-02T12:07:00Z,27.6250,-90.4410,15.2,60.0,27.3,-9999.0,'11111222,11111222,99999999' 
ADCP,ioos:station:wmo:42890:1,2013-04-02T12:27:00Z,27.6250,-90.4410,15.2,59.0,14.8,-9999.0,'11111222,11111222,99999999' 
ADCP,ioos:station:wmo:42890:1,2013-04-02T12:47:00Z,27.6250,-90.4410,15.2,64.0,11.0,-9999.0,'11111222,11111222,99999999' 
ADCP,ioos:station:wmo:42890:1,2013-04-02T13:07:00Z,27.6250,-90.4410,15.2,74.0,21.6,-9999.0,'11111222,11111222,99999999' 
ADCP,ioos:station:wmo:42890:1,2013-04-02T13:27:00Z,27.6250,-90.4410,15.2,70.0,14.2,-9999.0,'11111222,11111222,99999999' 
ADCP,ioos:station:wmo:42890:1,2013-04-02T13:47:00Z,27.6250,-90.4410,15.2,74.0,13.9,-9999.0,'11111222,11111222,99999999' 
ADCP,ioos:station:wmo:42890:1,2013-04-02T14:07:00Z,27.6250,-90.4410,15.2,67.0,13.8,-9999.0,'11111222,11111222,99999999' 
ADCP,ioos:station:wmo:42890:1,2013-04-02T14:27:00Z,27.6250,-90.4410,15.2,74.0,17.6,-9999.0,'11111222,11111222,99999999' 
ADCP,ioos:station:wmo:42890:1,2013-04-02T14:47:00Z,27.6250,-90.4410,15.2,69.0,16.1,-9999.0,'11111222,11111222,99999999' 
ADCP,ioos:station:wmo:42890:1,2013-04-02T15:07:00Z,27.6250,-90.4410,15.2,68.0,16.4,-9999.0,'11111222,11111222,99999999' 
ADCP,ioos:station:wmo:42890:1,2013-04-02T15:27:00Z,27.6250,-90.4410,15.2,68.0,19.0,-9999.0,'11111222,11111222,99999999' 
ADCP,ioos:station:wmo:42890:1,2013-04-02T15:47:00Z,27.6250,-90.4410,15.2,59.0,15.8,-9999.0,'11111222,11111222,99999999' 
ADCP,ioos:station:wmo:42890:1,2013-04-02T16:07:00Z,27.6250,-90.4410,15.2,60.0,18.4,-9999.0,'11111222,11111222,99999999' 
ADCP,ioos:station:wmo:42890:1,2013-04-02T16:27:00Z,27.6250,-90.4410,15.2,62.0,17.6,-9999.0,'11111222,11111222,99999999' 
ADCP,ioos:station:wmo:42890:1,2013-04-02T16:47:00Z,27.6250,-90.4410,15.2,61.0,19.0,-9999.0,'11111222,11111222,99999999' 
ADCP,ioos:station:wmo:42890:1,2013-04-02T17:07:00Z,27.6250,-90.4410,15.2,57.0,17.9,-9999.0,'11111222,11111222,99999999' 
ADCP,ioos:station:wmo:42890:1,2013-04-02T17:27:00Z,27.6250,-90.4410,15.2,57.0,15.8,-9999.0,'11111222,11111222,99999999' 
ADCP,ioos:station:wmo:42890:1,2013-04-02T17:47:00Z,27.6250,-90.4410,15.2,53.0,16.4,-9999.0,'11111222,11111222,99999999' 
ADCP,ioos:station:wmo:42890:1,2013-04-02T18:07:00Z,27.6250,-90.4410,15.2,45.0,16.1,-9999.0,'11111222,11111222,99999999' 
ADCP,ioos:station:wmo:42890:1,2013-04-02T18:27:00Z,27.6250,-90.4410,15.2,49.0,19.8,-9999.0,'11111222,11111222,99999999' 
ADCP,ioos:station:wmo:42890:1,2013-04-02T18:47:00Z,27.6250,-90.4410,15.2,46.0,19.7,-9999.0,'11111222,11111222,99999999' 
ADCP,ioos:station:wmo:42890:1,2013-04-02T19:07:00Z,27.6250,-90.4410,15.2,44.0,18.8,-9999.0,'11111222,11111222,99999999' 
ADCP,ioos:station:wmo:42890:1,2013-04-02T19:27:00Z,27.6250,-90.4410,15.2,49.0,19.5,-9999.0,'11111222,11111222,99999999' 
ADCP,ioos:station:wmo:42890:1,2013-04-02T19:47:00Z,27.6250,-90.4410,15.2,49.0,20.3,-9999.0,'11111222,11111222,99999999' 
ADCP,ioos:station:wmo:42890:1,2013-04-02T20:07:00Z,27.6250,-90.4410,15.2,50.0,23.8,-9999.0,'11111222,11111222,99999999' 
ADCP,ioos:station:wmo:42890:1,2013-04-02T20:27:00Z,27.6250,-90.4410,15.2,48.0,23.0,-9999.0,'11111222,11111222,99999999' 
ADCP,ioos:station:wmo:42890:1,2013-04-02T20:47:00Z,27.6250,-90.4410,15.2,44.0,21.7,-9999.0,'11111222,11111222,99999999' 
ADCP,ioos:station:wmo:42890:1,2013-04-02T21:07:00Z,27.6250,-90.4410,15.2,43.0,24.1,-9999.0,'11111222,11111222,99999999' 
ADCP,ioos:station:wmo:42890:1,2013-04-02T21:27:00Z,27.6250,-90.4410,15.2,45.0,25.8,-9999.0,'11111222,11111222,99999999' 
ADCP,ioos:station:wmo:42890:1,2013-04-02T21:47:00Z,27.6250,-90.4410,15.2,47.0,25.7,-9999.0,'11111222,11111222,99999999' 
ADCP,ioos:station:wmo:42890:1,2013-04-02T22:07:00Z,27.6250,-90.4410,15.2,54.0,27.9,-9999.0,'11111222,11111222,99999999' 
ADCP,ioos:station:wmo:42890:1,2013-04-02T22:27:00Z,27.6250,-90.4410,15.2,59.0,31.3,-9999.0,'11111222,11111222,99999999' 
ADCP,ioos:station:wmo:42890:1,2013-04-02T22:47:00Z,27.6250,-90.4410,15.2,60.0,31.9,-9999.0,'11111222,11111222,99999999' 
ADCP,ioos:station:wmo:42890:1,2013-04-02T23:07:00Z,27.6250,-90.4410,15.2,55.0,30.1,-9999.0,'11111222,11111222,99999999' 
ADCP,ioos:station:wmo:42890:1,2013-04-02T23:27:00Z,27.6250,-90.4410,15.2,55.0,31.8,-9999.0,'11111222,11111222,99999999' 
ADCP,ioos:station:wmo:42890:1,2013-04-02T23:47:00Z,27.6250,-90.4410,15.2,56.0,30.0,-9999.0,'11111222,11111222,99999999' 
ADCP,ioos:station:wmo:42890:1,2013-04-03T00:07:00Z,27.6250,-90.4410,15.2,54.0,33.7,-9999.0,'11111222,11111222,99999999' 
ADCP,ioos:station:wmo:42890:1,2013-04-03T00:27:00Z,27.6250,-90.4410,15.2,49.0,34.9,-9999.0,'11111222,11111222,99999999' 
ADCP,ioos:station:wmo:42890:1,2013-04-03T00:47:00Z,27.6250,-90.4410,15.2,56.0,38.8,-9999.0,'11111222,11111222,99999999' 
ADCP,ioos:station:wmo:42890:1,2013-04-03T01:07:00Z,27.6250,-90.4410,15.2,59.0,38.0,-9999.0,'11111222,11111222,99999999' 
ADCP,ioos:station:wmo:42890:1,2013-04-03T01:27:00Z,27.6250,-90.4410,15.2,58.0,37.0,-9999.0,'11111222,11111222,99999999' 
ADCP,ioos:station:wmo:42890:1,2013-04-03T01:47:00Z,27.6250,-90.4410,15.2,54.0,38.0,-9999.0,'11111222,11111222,99999999' 
ADCP,ioos:station:wmo:42890:1,2013-04-03T02:07:00Z,27.6250,-90.4410,15.2,51.0,36.7,-9999.0,'11111222,11111222,99999999' 
ADCP,ioos:station:wmo:42890:1,2013-04-03T02:27:00Z,27.6250,-90.4410,15.2,51.0,33.9,-9999.0,'11111222,11111222,99999999' 
ADCP,ioos:station:wmo:42890:1,2013-04-03T02:47:00Z,27.6250,-90.4410,15.2,53.0,34.2,-9999.0,'11111222,11111222,99999999' 
ADCP,ioos:station:wmo:42890:1,2013-04-03T03:07:00Z,27.6250,-90.4410,15.2,53.0,34.3,-9999.0,'11111222,11111222,99999999' 
ADCP,ioos:station:wmo:42890:1,2013-04-03T03:27:00Z,27.6250,-90.4410,15.2,52.0,29.8,-9999.0,'11111222,11111222,99999999' 
ADCP,ioos:station:wmo:42890:1,2013-04-03T03:47:00Z,27.6250,-90.4410,15.2,49.0,29.3,-9999.0,'11111222,11111222,99999999' 
ADCP,ioos:station:wmo:42890:1,2013-04-03T04:07:00Z,27.6250,-90.4410,15.2,51.0,29.8,-9999.0,'11111222,11111222,99999999' 
ADCP,ioos:station:wmo:42890:1,2013-04-03T04:27:00Z,27.6250,-90.4410,15.2,50.0,30.2,-9999.0,'11111222,11111222,99999999' 
ADCP,ioos:station:wmo:42890:1,2013-04-03T04:47:00Z,27.6250,-90.4410,15.2,51.0,33.2,-9999.0,'11111222,11111222,99999999' 
ADCP,ioos:station:wmo:42890:1,2013-04-03T05:07:00Z,27.6250,-90.4410,15.2,54.0,37.0,-9999.0,'11111222,11111222,99999999' 
ADCP,ioos:station:wmo:42890:1,2013-04-03T05:27:00Z,27.6250,-90.4410,15.2,51.0,35.1,-9999.0,'11111222,11111222,99999999' 
ADCP,ioos:station:wmo:42890:1,2013-04-03T05:47:00Z,27.6250,-90.4410,15.2,49.0,35.2,-9999.0,'11111222,11111222,99999999' 
ADCP,ioos:station:wmo:42890:1,2013-04-03T06:07:00Z,27.6250,-90.4410,15.2,46.0,36.9,-9999.0,'11111222,11111222,99999999' 
ADCP,ioos:station:wmo:42890:1,2013-04-03T06:27:00Z,27.6250,-90.4410,15.2,47.0,37.4,-9999.0,'11111222,11111222,99999999' 
ADCP,ioos:station:wmo:42890:1,2013-04-03T06:47:00Z,27.6250,-90.4410,15.2,48.0,37.9,-9999.0,'11111222,11111222,99999999' 
ADCP,ioos:station:wmo:42890:1,2013-04-03T07:07:00Z,27.6250,-90.4410,15.2,47.0,38.6,-9999.0,'11111222,11111222,99999999' 
ADCP,ioos:station:wmo:42890:1,2013-04-03T07:27:00Z,27.6250,-90.4410,15.2,48.0,38.9,-9999.0,'11111222,11111222,99999999' 
ADCP,ioos:station:wmo:42890:1,2013-04-03T07:47:00Z,27.6250,-90.4410,15.2,49.0,39.7,-9999.0,'11111222,11111222,99999999' 
ADCP,ioos:station:wmo:42890:1,2013-04-03T08:07:00Z,27.6250,-90.4410,15.2,51.0,33.4,-9999.0,'11111222,11111222,99999999' 
ADCP,ioos:station:wmo:42890:1,2013-04-03T08:27:00Z,27.6250,-90.4410,15.2,56.0,24.0,-9999.0,'11111222,11111222,99999999' 
ADCP,ioos:station:wmo:42890:1,2013-04-03T08:47:00Z,27.6250,-90.4410,15.2,58.0,28.5,-9999.0,'11111222,11111222,99999999' 
ADCP,ioos:station:wmo:42890:1,2013-04-03T09:07:00Z,27.6250,-90.4410,15.2,56.0,29.1,-9999.0,'11111222,11111222,99999999' 
ADCP,ioos:station:wmo:42890:1,2013-04-03T09:27:00Z,27.6250,-90.4410,15.2,59.0,35.8,-9999.0,'11111222,11111222,99999999' 
ADCP,ioos:station:wmo:42890:1,2013-04-03T09:47:00Z,27.6250,-90.4410,15.2,60.0,36.6,-9999.0,'11111222,11111222,99999999' 
ADCP,ioos:station:wmo:42890:1,2013-04-03T10:07:00Z,27.6250,-90.4410,15.2,61.0,39.4,-9999.0,'11111222,11111222,99999999' 
ADCP,ioos:station:wmo:42890:1,2013-04-03T10:27:00Z,27.6250,-90.4410,15.2,62.0,34.9,-9999.0,'11111222,11111222,99999999' 
ADCP,ioos:station:wmo:42890:1,2013-04-03T10:47:00Z,27.6250,-90.4410,15.2,60.0,33.1,-9999.0,'11111222,11111222,99999999' 
ADCP,ioos:station:wmo:42890:1,2013-04-03T11:07:00Z,27.6250,-90.4410,15.2,59.0,32.5,-9999.0,'11111222,11111222,99999999' 
ADCP,ioos:station:wmo:42890:1,2013-04-03T11:27:00Z,27.6250,-90.4410,15.2,60.0,31.6,-9999.0,'11111222,11111222,99999999' 
ADCP,ioos:station:wmo:42890:1,2013-04-03T11:47:00Z,27.6250,-90.4410,15.2,62.0,30.2,-9999.0,'11111222,11111222,99999999' 
ADCP,ioos:station:wmo:42890:1,2013-04-03T12:07:00Z,27.6250,-90.4410,15.2,52.0,34.1,-9999.0,'11111222,11111222,99999999' 
ADCP,ioos:station:wmo:42890:1,2013-04-03T12:27:00Z,27.6250,-90.4410,15.2,51.0,37.2,-9999.0,'11111222,11111222,99999999' 
ADCP,ioos:station:wmo:42890:1,2013-04-03T12:47:00Z,27.6250,-90.4410,15.2,52.0,37.0,-9999.0,'11111222,11111222,99999999' 
ADCP,ioos:station:wmo:42890:1,2013-04-03T13:07:00Z,27.6250,-90.4410,15.2,67.0,33.4,-9999.0,'11111222,11111222,99999999' 
ADCP,ioos:station:wmo:42890:1,2013-04-03T13:27:00Z,27.6250,-90.4410,15.2,66.0,39.5,-9999.0,'11111222,11111222,99999999' 
ADCP,ioos:station:wmo:42890:1,2013-04-03T13:47:00Z,27.6250,-90.4410,15.2,81.0,43.3,-9999.0,'11111222,11111222,99999999' 
ADCP,ioos:station:wmo:42890:1,2013-04-03T14:07:00Z,27.6250,-90.4410,15.2,89.0,42.0,-9999.0,'11111222,11111222,99999999' 
ADCP,ioos:station:wmo:42890:1,2013-04-03T14:27:00Z,27.6250,-90.4410,15.2,97.0,40.3,-9999.0,'11111222,11111222,99999999' 
ADCP,ioos:station:wmo:42890:1,2013-04-03T14:47:00Z,27.6250,-90.4410,15.2,102.0,37.1,-9999.0,'11111222,11111222,99999999' 
ADCP,ioos:station:wmo:42890:1,2013-04-03T15:07:00Z,27.6250,-90.4410,15.2,106.0,38.8,-9999.0,'11111222,11111222,99999999' 
ADCP,ioos:station:wmo:42890:1,2013-04-03T15:27:00Z,27.6250,-90.4410,15.2,109.0,34.9,-9999.0,'11111222,11111222,99999999' 
ADCP,ioos:station:wmo:42890:1,2013-04-03T15:47:00Z,27.6250,-90.4410,15.2,117.0,33.5,-9999.0,'11111222,11111222,99999999' 
ADCP,ioos:station:wmo:42890:1,2013-04-03T16:07:00Z,27.6250,-90.4410,15.2,121.0,33.2,-9999.0,'11111222,11111222,99999999' 
ADCP,ioos:station:wmo:42890:1,2013-04-03T16:27:00Z,27.6250,-90.4410,15.2,125.0,30.3,-9999.0,'11111222,11111222,99999999' 
ADCP,ioos:station:wmo:42890:1,2013-04-03T16:47:00Z,27.6250,-90.4410,15.2,139.0,23.2,-9999.0,'11111222,11111222,99999999' 
ADCP,ioos:station:wmo:42890:1,2013-04-03T17:07:00Z,27.6250,-90.4410,15.2,119.0,22.3,-9999.0,'11111222,11111222,99999999' 
ADCP,ioos:station:wmo:42890:1,2013-04-03T17:27:00Z,27.6250,-90.4410,15.2,113.0,18.1,-9999.0,'11111222,11111222,99999999' 